Weather History for KHBG - May, 2013

Change the Weather History Date:

Friday, May 17, 2013

  Actual Average Record
Temperature  
Mean Temperature 77 °F 74 °F  
Max Temperature 85 °F 86 °F 94 °F (1948)
Min Temperature 68 °F 62 °F 46 °F (1973)
Degree Days  
Heating Degree Days 0 0  
Month to date heating degree days 33 5  
Since 1 July heating degree days 1864 1983  
Cooling Degree Days 12 9  
Month to date cooling degree days 55 125  
Year to date cooling degree days 178 265  
Growing Degree Days 26 (Base 50)    
Moisture  
Dew Point 69 °F    
Average Humidity 78    
Maximum Humidity 97    
Minimum Humidity 58    
Precipitation  
Precipitation 0.00 in 0.16 in 4.58 in (1980)
Month to date precipitation 5.76 2.67  
Year to date precipitation 36.73 24.23  
Sea Level Pressure  
Sea Level Pressure 30.01 in    
Wind  
Wind Speed 8 mph (South)    
Max Wind Speed 16 mph    
Max Gust Speed 22 mph    
Visibility 10 miles    
Events      
T = Trace of Precipitation, MM = Missing Value Source: NWS Daily Summary

Daily Weather History Graph

Daily Weather History Graph

Search for Another Location

Airport or City:

Trip Planner

Search our weather history database for the weather conditions in past years. The results will help you decide how hot, cold, wet, or windy it might be!

Date:

Astronomy

May. 17, 2013 Rise Set
Actual Time 5:59 AM CDT 7:47 PM CDT
Civil Twilight 5:33 AM CDT 8:14 PM CDT
Nautical Twilight 5:00 AM CDT 8:46 PM CDT
Astronomical Twilight 4:26 AM CDT 9:20 PM CDT
Moon 12:21 PM CDT (5/17) 12:49 AM CDT (5/17)
Length of Visible Light 14h 41m
Length of Day
13h 47m
Waxing Crescent, 45% of the Moon is Illuminated
May 17
Waxing Crescent
May 17
First Quarter
May 24
Full
May 31
Last Quarter
Jun 8
New

Hourly Weather History & Observations

Time (CDT) Temp. Heat Index Dew Point Humidity Pressure Visibility Wind Dir Wind Speed Gust Speed Precip Events Conditions
12:53 AM 72.0 °F - 68.0 °F 87% 29.99 in 10.0 mi SSE 5.8 mph - N/A   Overcast
1:53 AM 71.1 °F - 68.0 °F 90% 29.98 in 10.0 mi SSE 4.6 mph - N/A   Overcast
2:53 AM 70.0 °F - 68.0 °F 93% 29.97 in 10.0 mi SSE 4.6 mph - N/A   Overcast
3:53 AM 71.1 °F - 68.0 °F 90% 29.97 in 10.0 mi SE 3.5 mph - N/A   Overcast
4:53 AM 69.1 °F - 66.9 °F 93% 29.98 in 10.0 mi SE 3.5 mph - N/A   Mostly Cloudy
5:18 AM 69.8 °F - 66.2 °F 88% 29.99 in 10.0 mi Calm Calm - N/A   Overcast
5:41 AM 68.0 °F - 66.2 °F 94% 29.99 in 10.0 mi SSE 4.6 mph - N/A   Scattered Clouds
5:53 AM 68.0 °F - 66.0 °F 93% 29.99 in 10.0 mi SSE 4.6 mph - N/A   Partly Cloudy
7:03 AM 71.6 °F - 69.8 °F 94% 30.01 in 10.0 mi SSE 5.8 mph - N/A   Scattered Clouds
7:23 AM 71.6 °F - 69.8 °F 94% 30.01 in 10.0 mi South 6.9 mph - N/A   Mostly Cloudy
7:53 AM 73.0 °F - 70.0 °F 90% 30.01 in 10.0 mi South 11.5 mph - N/A   Mostly Cloudy
8:09 AM 73.4 °F - 69.8 °F 88% 30.03 in 10.0 mi South 5.8 mph - N/A   Mostly Cloudy
8:48 AM 77.0 °F - 69.8 °F 78% 30.03 in 10.0 mi SSW 9.2 mph - N/A   Mostly Cloudy
8:53 AM 75.9 °F - 69.1 °F 79% 30.02 in 10.0 mi South 9.2 mph - N/A   Mostly Cloudy
9:05 AM 75.2 °F - 69.8 °F 83% 30.03 in 10.0 mi South 8.1 mph 16.1 mph N/A   Mostly Cloudy
9:53 AM 78.1 °F - 68.0 °F 71% 30.03 in 10.0 mi SSW 8.1 mph 16.1 mph N/A   Overcast
10:53 AM 80.1 °F 82.3 °F 66.9 °F 64% 30.04 in 10.0 mi SSW 6.9 mph - N/A   Mostly Cloudy
11:53 AM 82.9 °F 85.4 °F 66.9 °F 58% 30.03 in 10.0 mi South 12.7 mph - N/A   Mostly Cloudy
12:53 PM 81.0 °F 83.3 °F 66.9 °F 62% 30.02 in 10.0 mi South 8.1 mph 18.4 mph N/A   Mostly Cloudy
2:53 PM 82.9 °F 85.8 °F 68.0 °F 60% 30.00 in 10.0 mi South 8.1 mph - N/A   Scattered Clouds
3:53 PM 84.9 °F 88.2 °F 68.0 °F 57% 29.98 in 10.0 mi South 15.0 mph 20.7 mph N/A   Partly Cloudy
4:53 PM 82.9 °F 85.8 °F 68.0 °F 60% 29.96 in 10.0 mi South 12.7 mph - N/A   Mostly Cloudy
5:53 PM 82.0 °F 85.5 °F 69.1 °F 65% 29.96 in 10.0 mi South 11.5 mph - N/A   Scattered Clouds
6:53 PM 81.0 °F 84.1 °F 69.1 °F 67% 29.98 in 10.0 mi South 8.1 mph 17.3 mph N/A   Clear
7:53 PM 78.1 °F - 69.1 °F 74% 29.99 in 10.0 mi South 9.2 mph - N/A   Clear
8:53 PM 75.9 °F - 69.1 °F 79% 30.00 in 10.0 mi South 6.9 mph - N/A   Clear
9:53 PM 73.9 °F - 69.1 °F 85% 30.01 in 10.0 mi South 6.9 mph - N/A   Partly Cloudy
10:30 PM 73.4 °F - 69.8 °F 88% 30.03 in 10.0 mi South 5.8 mph - N/A   Mostly Cloudy
10:53 PM 73.9 °F - 70.0 °F 87% 30.03 in 10.0 mi South 5.8 mph - N/A   Mostly Cloudy
11:09 PM 73.4 °F - 69.8 °F 88% 30.04 in 10.0 mi South 6.9 mph - N/A   Scattered Clouds
11:25 PM 73.4 °F - 69.8 °F 88% 30.04 in 10.0 mi South 5.8 mph - N/A   Mostly Cloudy
11:53 PM 73.9 °F - 70.0 °F 87% 30.04 in 10.0 mi South 6.9 mph - N/A   Mostly Cloudy